Weather History for Ruidoso, NM

Change the Weather History Date:

Saturday, February 15, 2014

  Actual Average Record
Temperature  
Mean Temperature 58 °F -  
Max Temperature 69 °F 50 °F 69 °F (2014)
Min Temperature 48 °F 30 °F 17 °F (2007)
Degree Days  
Heating Degree Days 6    
Growing Degree Days 8 (Base 50)    
Moisture  
Dew Point 14 °F    
Average Humidity 20    
Maximum Humidity 32    
Minimum Humidity 9    
Precipitation  
Precipitation 0.00 in - - ()
Sea Level Pressure  
Sea Level Pressure 30.20 in    
Wind  
Wind Speed 13 mph (West)    
Max Wind Speed 18 mph    
Max Gust Speed 25 mph    
Visibility 10 miles    
Events      
Averages and records for this station are not official NWS values.
T = Trace of Precipitation, MM = Missing Value Source: NWS Daily Summary

Daily Weather History Graph

Daily Weather History Graph

Search for Another Location

Airport:

Trip Planner

Search our weather history database for the weather conditions in past years. The results will help you decide how hot, cold, wet, or windy it might be!

Date:

Astronomy

Feb. 15, 2014 Rise Set
Actual Time 6:46 AM MST 5:46 PM MST
Civil Twilight 6:20 AM MST 6:12 PM MST
Nautical Twilight 5:51 AM MST 6:41 PM MST
Astronomical Twilight 5:22 AM MST 7:10 PM MST
Moon 6:43 PM MST (2/15) 6:50 AM MST (2/15)
Length of Visible Light 11h 51m
Length of Day
11h 00m
Waxing Gibbous, 99% of the Moon is Illuminated
Feb 15
Waxing Gibbous
Feb 22
Last Quarter
Mar 1
New
Mar 8
First Quarter
Mar 16
Full

Hourly Weather History & Observations

Time (MST) Temp. Dew Point Humidity Pressure Visibility Wind Dir Wind Speed Gust Speed Precip Events Conditions
12:15 AM 53.6 °F 19.4 °F 26% 30.19 in 10.0 mi WNW 12.7 mph 20.7 mph N/A   Clear
12:35 AM 53.6 °F 19.4 °F 26% 30.19 in 10.0 mi NW 15.0 mph 19.6 mph N/A   Clear
12:55 AM 53.6 °F 19.4 °F 26% 30.19 in 10.0 mi WNW 12.7 mph 21.9 mph N/A   Clear
1:15 AM 53.6 °F 19.4 °F 26% 30.19 in 10.0 mi WNW 17.3 mph 25.3 mph N/A   Clear
1:35 AM 51.8 °F 19.4 °F 28% 30.19 in 10.0 mi WNW 17.3 mph 24.2 mph N/A   Clear
1:55 AM 51.8 °F 19.4 °F 28% 30.18 in 10.0 mi NW 15.0 mph 23.0 mph N/A   Clear
2:15 AM 50.0 °F 19.4 °F 30% 30.18 in 10.0 mi WNW 13.8 mph - N/A   Clear
2:35 AM 50.0 °F 19.4 °F 30% 30.18 in 10.0 mi WNW 12.7 mph - N/A   Clear
2:55 AM 50.0 °F 19.4 °F 30% 30.18 in 10.0 mi NW 11.5 mph 21.9 mph N/A   Clear
3:15 AM 50.0 °F 19.4 °F 30% 30.18 in 10.0 mi WNW 10.4 mph 19.6 mph N/A   Clear
3:35 AM 48.2 °F 19.4 °F 32% 30.19 in 10.0 mi NW 13.8 mph - N/A   Clear
3:55 AM 48.2 °F 17.6 °F 30% 30.19 in 10.0 mi WNW 12.7 mph 18.4 mph N/A   Clear
4:15 AM 48.2 °F 17.6 °F 30% 30.19 in 10.0 mi WNW 13.8 mph 17.3 mph N/A   Clear
4:35 AM 48.2 °F 17.6 °F 30% 30.20 in 10.0 mi WNW 13.8 mph 18.4 mph N/A   Clear
4:55 AM 48.2 °F 17.6 °F 30% 30.20 in 10.0 mi WNW 11.5 mph 17.3 mph N/A   Clear
5:15 AM 48.2 °F 15.8 °F 27% 30.19 in 10.0 mi NW 17.3 mph 23.0 mph N/A   Clear
5:35 AM 50.0 °F 15.8 °F 26% 30.19 in 10.0 mi NW 13.8 mph 23.0 mph N/A   Clear
5:55 AM 48.2 °F 15.8 °F 27% 30.20 in 10.0 mi WNW 12.7 mph 20.7 mph N/A   Clear
6:15 AM 48.2 °F 15.8 °F 27% 30.20 in 10.0 mi WNW 9.2 mph 18.4 mph N/A   Clear
6:35 AM 48.2 °F 15.8 °F 27% 30.21 in 10.0 mi WNW 13.8 mph 18.4 mph N/A   Clear
6:55 AM 50.0 °F 15.8 °F 26% 30.21 in 10.0 mi WNW 13.8 mph 21.9 mph N/A   Clear
7:15 AM 50.0 °F 15.8 °F 26% 30.21 in 10.0 mi WNW 16.1 mph 19.6 mph N/A   Clear
7:35 AM 50.0 °F 15.8 °F 26% 30.22 in 10.0 mi WNW 12.7 mph - N/A   Clear
7:55 AM 53.6 °F 17.6 °F 24% 30.23 in 10.0 mi WNW 12.7 mph 17.3 mph N/A   Clear
8:15 AM 55.4 °F 17.6 °F 23% 30.24 in 10.0 mi WNW 11.5 mph - N/A   Clear
8:35 AM 57.2 °F 17.6 °F 21% 30.24 in 10.0 mi WNW 10.4 mph - N/A   Clear
8:55 AM 59.0 °F 17.6 °F 20% 30.24 in 10.0 mi WNW 12.7 mph 17.3 mph N/A   Clear
9:15 AM 60.8 °F 15.8 °F 17% 30.24 in 10.0 mi NW 13.8 mph 19.6 mph N/A   Clear
9:35 AM 62.6 °F 15.8 °F 16% 30.24 in 10.0 mi WNW 13.8 mph 19.6 mph N/A   Clear
9:55 AM 62.6 °F 14.0 °F 15% 30.24 in 10.0 mi WNW 17.3 mph 24.2 mph N/A   Clear
10:15 AM 64.4 °F 14.0 °F 14% 30.24 in 10.0 mi WNW 12.7 mph 21.9 mph N/A   Clear
10:35 AM 66.2 °F 14.0 °F 13% 30.24 in 10.0 mi NW 15.0 mph 19.6 mph N/A   Clear
10:55 AM 66.2 °F 12.2 °F 12% 30.24 in 10.0 mi WNW 12.7 mph 19.6 mph N/A   Clear
11:15 AM 66.2 °F 12.2 °F 12% 30.24 in 10.0 mi NW 13.8 mph 19.6 mph N/A   Clear
11:35 AM 68.0 °F 10.4 °F 11% 30.24 in 10.0 mi NW 10.4 mph 17.3 mph N/A   Clear
11:55 AM 68.0 °F 8.6 °F 10% 30.23 in 10.0 mi West 10.4 mph 20.7 mph N/A   Clear
12:15 PM 68.0 °F 8.6 °F 10% 30.22 in 10.0 mi West 16.1 mph 21.9 mph N/A   Clear
12:35 PM 68.0 °F 8.6 °F 10% 30.21 in 10.0 mi West 15.0 mph 19.6 mph N/A   Clear
12:55 PM 69.8 °F 8.6 °F 9% 30.20 in 10.0 mi West 17.3 mph 24.2 mph N/A   Clear
1:15 PM 68.0 °F 6.8 °F 9% 30.20 in 10.0 mi WNW 13.8 mph 24.2 mph N/A   Clear
1:35 PM 69.8 °F 6.8 °F 9% 30.19 in 10.0 mi WSW 18.4 mph 23.0 mph N/A   Clear
1:55 PM 69.8 °F 8.6 °F 9% 30.19 in 10.0 mi WNW 17.3 mph 21.9 mph N/A   Clear
2:15 PM 68.0 °F 8.6 °F 10% 30.18 in 10.0 mi WNW 12.7 mph 20.7 mph N/A   Clear
2:35 PM 68.0 °F 6.8 °F 9% 30.18 in 10.0 mi WNW 12.7 mph 18.4 mph N/A   Clear
2:55 PM 68.0 °F 6.8 °F 9% 30.18 in 10.0 mi WNW 15.0 mph 20.7 mph N/A   Clear
3:15 PM 68.0 °F 8.6 °F 10% 30.18 in 10.0 mi WNW 13.8 mph 19.6 mph N/A   Clear
3:35 PM 68.0 °F 10.4 °F 11% 30.17 in 10.0 mi WNW 15.0 mph 23.0 mph N/A   Clear
3:55 PM 68.0 °F 10.4 °F 11% 30.18 in 10.0 mi WNW 12.7 mph 18.4 mph N/A   Clear
4:15 PM 66.2 °F 12.2 °F 12% 30.18 in 10.0 mi WNW 11.5 mph - N/A   Clear
4:35 PM 64.4 °F 15.8 °F 15% 30.18 in 10.0 mi SW 11.5 mph - N/A   Clear
4:55 PM 62.6 °F 15.8 °F 16% 30.18 in 10.0 mi SW 12.7 mph - N/A   Clear
5:15 PM 62.6 °F 14.0 °F 15% 30.19 in 10.0 mi SW 13.8 mph 18.4 mph N/A   Clear
5:35 PM 60.8 °F 14.0 °F 16% 30.19 in 10.0 mi SW 11.5 mph - N/A   Clear
5:55 PM 59.0 °F 14.0 °F 17% 30.20 in 10.0 mi SSW 11.5 mph - N/A   Clear
6:15 PM 57.2 °F 14.0 °F 18% 30.21 in 10.0 mi SW 9.2 mph - N/A   Clear
6:35 PM 57.2 °F 14.0 °F 18% 30.21 in 10.0 mi SW 4.6 mph - N/A   Clear
6:55 PM 57.2 °F 14.0 °F 18% 30.22 in 10.0 mi SW 5.8 mph - N/A   Clear
7:15 PM 53.6 °F 14.0 °F 21% 30.22 in 10.0 mi SW 10.4 mph - N/A   Clear
7:35 PM 53.6 °F 14.0 °F 21% 30.22 in 10.0 mi WSW 11.5 mph - N/A   Clear
7:55 PM 53.6 °F 15.8 °F 22% 30.22 in 10.0 mi SW 9.2 mph - N/A   Clear
8:15 PM 51.8 °F 14.0 °F 22% 30.21 in 10.0 mi SSW 5.8 mph - N/A   Clear
8:35 PM 53.6 °F 14.0 °F 21% 30.21 in 10.0 mi SSW 5.8 mph - N/A   Clear
8:55 PM 53.6 °F 14.0 °F 21% 30.21 in 10.0 mi SSW 4.6 mph - N/A   Clear
9:15 PM 55.4 °F 14.0 °F 20% 30.21 in 10.0 mi Calm Calm - N/A   Clear
9:35 PM 51.8 °F 14.0 °F 22% 30.20 in 10.0 mi SW 5.8 mph - N/A   Clear
9:55 PM 55.4 °F 12.2 °F 18% 30.20 in 10.0 mi West 3.5 mph - N/A   Clear
10:15 PM 53.6 °F 10.4 °F 18% 30.20 in 10.0 mi Calm Calm - N/A   Clear
10:35 PM 50.0 °F 14.0 °F 24% 30.20 in 10.0 mi Calm Calm - N/A   Clear
10:55 PM 55.4 °F 8.6 °F 15% 30.20 in 10.0 mi WSW 18.4 mph - N/A   Clear
11:15 PM 55.4 °F 8.6 °F 15% 30.20 in 10.0 mi WSW 15.0 mph 20.7 mph N/A   Clear
11:35 PM 55.4 °F 10.4 °F 17% 30.20 in 10.0 mi WNW 4.6 mph - N/A   Clear
11:55 PM 48.2 °F 12.2 °F 24% 30.20 in 10.0 mi NNW 5.8 mph - N/A   Clear